EAGLET 1
1 43790U 18099AJ 22104.42872964 .00001098 00000-0 10152-3 0 9991
2 43790 97.6281 173.8424 0014456 123.3406 236.9202 14.96490757183217
ESEO
1 43792U 18099AL 22104.47522042 .00001415 00000-0 13079-3 0 9991
2 43792 97.6234 173.1927 0014674 120.7888 239.4780 14.96046080183265
CSIM
1 43793U 18099AM 22104.66975829 .00005257 00000-0 45178-3 0 9991
2 43793 97.6294 174.4740 0014601 116.8805 243.3912 14.97767577183335
Astrocast 0.1
1 43798U 18099AS 22104.44753164 .00003576 00000-0 31484-3 0 9995
2 43798 97.6283 174.2373 0013216 105.0273 255.2413 14.97045899183534
JO-97
1 43803U 18099AX 22104.42827922 .00002014 00000-0 18111-3 0 9992
2 43803 97.6251 173.0650 0016102 120.1517 240.1302 14.96663228183493
Suomi 100
1 43804U 18099AY 22104.44244500 .00002251 00000-0 20226-3 0 9993
2 43804 97.6237 173.0128 0016007 121.1792 239.1002 14.96585837183504
Al Farabi 2
1 43805U 18099AZ 22104.71863018 .00003443 00000-0 30318-3 0 9992
2 43805 97.6252 173.6995 0016047 120.2836 239.9965 14.97030116183561
CHOMPTT
1 43855U 18104G 22104.41808305 .00007642 00000-0 29169-3 0 9996
2 43855 85.0316 93.8028 0018842 111.9766 248.3483 15.26299616184950
ISAT
1 43879U 18111D 22104.52979401 .00002927 00000-0 25554-3 0 9993
2 43879 97.6693 11.3026 0012957 169.0961 191.0544 14.97529031180107
UWE-4
1 43880U 18111E 22104.74087185 .00003009 00000-0 26133-3 0 9994
2 43880 97.6720 12.1694 0012421 167.7522 192.4005 14.97716586178167
Sparrow
1 43881U 18111F 22104.69698492 .00003928 00000-0 33850-3 0 9992
2 43881 97.6749 12.3300 0012600 161.9132 198.2541 14.97839002178165
Lume 1
1 43908U 18111AJ 22104.66687957 .00010021 00000-0 35669-3 0 9995
2 43908 97.2006 354.5108 0017336 304.9424 55.0187 15.29004241183648
FO-98
1 43933U 19003B 22104.84297423 .00667831 00000-0 56756-2 0 9995
2 43933 97.1361 143.1735 0000802 153.5586 206.5716 15.67578918180360
FO-99
1 43937U 19003F 22104.85528021 .00014457 00000-0 51188-3 0 9996
2 43937 97.1384 140.7291 0021675 26.5490 333.6855 15.29000309180259
MYSat 1
1 44045U 18092F 22104.52265458 .00039126 00000-0 71227-3 0 9996
2 44045 51.6358 30.3824 0008121 209.5873 150.4657 15.49071422177944
AstroCast 0.2
1 44083U 19018F 22104.69543392 .00006957 00000-0 27680-3 0 9991
2 44083 97.3295 164.8246 0011457 1.7230 358.4046 15.25522494168765
AISTechSat 3
1 44103U 19018AB 22104.66081828 .00007560 00000-0 29300-3 0 9994
2 44103 97.3158 165.2024 0012220 9.2130 350.9331 15.26356647168913
AISat 1
1 44104U 19018AC 22104.47637062 .00006578 00000-0 19130-3 0 9999
2 44104 97.3971 187.4139 0053255 3.9353 356.2297 15.34363268169783
Prox-1
1 44339U 19036A 22104.53694095 .00003940 00000-0 85639-3 0 9992
2 44339 23.9999 236.8503 0010233 237.7351 122.2149 14.54597718149039
Oculus-ASR
1 44348U 19036K 22104.13173995 .00037994 -60161-5 39667-3 0 9995
2 44348 28.5068 273.6048 0266836 313.7405 44.1385 15.29149619154662
Armadillo
1 44352U 19036P 22104.61183615 .00116362 -29511-5 87136-3 0 9998
2 44352 28.5233 211.8436 0190752 51.5518 310.2039 15.50704739155276
NO-104
1 44354U 19036R 22104.70744038 .00050290 -56806-5 50968-3 0 9999
2 44354 28.5265 257.5154 0258327 336.8823 22.0332 15.31675933154868
NO-103
1 44355U 19036S 22104.37233598 .01062964 55981-3 13513-2 0 9993
2 44355 28.5140 128.1279 0058111 184.2365 175.7762 16.02758002156129
Move-IIb
1 44398U 19038N 22104.54111994 .00012404 00000-0 62839-3 0 9994
2 44398 97.6228 73.4122 0021711 355.6397 4.4629 15.16920729153346
SONATE
1 44400U 19038Q 22104.62541904 .00005868 00000-0 32530-3 0 9996
2 44400 97.6318 72.8999 0023738 357.9082 2.2046 15.13938664153277
BeeSat 9
1 44412U 19038AC 22104.43942949 .00008411 00000-0 44325-3 0 9994
2 44412 97.6301 73.3358 0020718 2.4970 357.6362 15.15661351152994
JAISAT-1
1 44419U 19038F 22104.70923895 .00009719 00000-0 50480-3 0 9991
2 44419 97.6305 74.3945 0019572 359.3637 0.7567 15.16147572153391
LightSail-2
1 44420U 19036AC 22104.53627442 .00051301 00000-0 80681-2 0 9990
2 44420 24.0013 188.8094 0013750 340.3895 19.6071 14.71092875147631
Taurus 1
1 44530U 19059C 22104.80133747 .00002702 00000-0 75834-3 0 9993
2 44530 98.5428 202.7293 0011987 314.6439 45.3761 14.46757904136648
Duchifat 3
1 44854U 19089C 22104.43873329 .00003996 00000-0 31673-3 0 9990
2 44854 36.9646 119.7053 0007028 55.3417 304.7963 15.00548624128311
OPS-SAT
1 44878U 19092F 22104.44862747 .00007815 00000-0 37799-3 0 9992
2 44878 97.4798 289.0031 0012723 198.3997 161.6779 15.18804893128477
TO-108
1 44881U 19093C 22104.76096981 .00000746 00000-0 10138-3 0 9995
2 44881 97.8943 184.8820 0015932 37.9589 322.2731 14.81638718125341
FloripaSat 1
1 44885U 19093G 22104.78646958 .00002419 00000-0 30464-3 0 9999
2 44885 97.8983 186.0289 0015357 45.3724 314.8722 14.82863052125414
RS-44
1 44909U 19096E 22104.55133045 .00000025 00000-0 46862-4 0 9993
2 44909 82.5172 272.7309 0218380 109.0924 253.3963 12.79713201107338
Phoenix
1 45258U 98067RB 22103.82870833 .00121177 00000-0 67825-3 0 9991
2 45258 51.6328 251.6913 0007754 299.3910 60.6316 15.78422695122189
BY70-2
1 45857U 20042B 22104.77816000 .00008111 00000-0 11076-2 0 9993
2 45857 97.9557 182.2679 0009033 327.1147 32.9486 14.78835741 96047
UPMSat 2
1 46276U 20061E 22104.69264014 .00004275 00000-0 21590-3 0 9993
2 46276 97.3962 176.9823 0002596 67.0375 293.1133 15.17610757 89200
AmicalSat
1 46287U 20061R 22104.43171281 .00004371 00000-0 25876-3 0 9998
2 46287 97.4510 175.7194 0003926 125.6931 234.4665 15.11925941 88796
SALSAT
1 46495U 20068K 22104.57435133 .00002733 00000-0 20087-3 0 9999
2 46495 97.7255 45.8915 0017915 130.3659 229.9135 15.04160413 84588
BY70-3
1 46839U 20079N 22104.85545926 .00023104 00000-0 59860-3 0 9992
2 46839 97.2028 177.9032 0006203 191.8893 279.8650 15.39020933 80458
SPOC
1 46921U 98067RR 22104.67443049 .00126936 00000-0 84025-3 0 9997
2 46921 51.6331 260.4775 0003727 277.9827 82.0749 15.74628383 81887
Neutron-1
1 46923U 98067RT 22104.52354075 .00121730 00000-0 81315-3 0 9999
2 46923 51.6338 261.7312 0003945 274.6902 85.3647 15.74436404 81881
CAPE 3
1 47309U 21002A 22104.58526851 .00010846 00000-0 46146-3 0 9990
2 47309 60.6844 244.5643 0015378 249.9856 109.9576 15.23413878 68719
AO-109
1 47311U 21002C 22104.53172185 .00009486 00000-0 39756-3 0 9992
2 47311 60.6851 242.6646 0012111 240.4884 119.4996 15.24092148 68717
MiTEE 1
1 47314U 21002F 22104.69737423 .00019844 00000-0 73342-3 0 9992
2 47314 60.6837 237.0857 0012551 220.9628 139.0520 15.27733363 68842
ExoCube 2
1 47319U 21002L 22104.57816730 .00009308 00000-0 39497-3 0 9990
2 47319 60.6848 243.4034 0012544 246.2509 113.7263 15.23683250 68677
UVSQ-SAT
1 47438U 21006AB 22104.42300490 .00005472 00000-0 29751-3 0 9991
2 47438 97.4444 164.7654 0013583 133.6900 226.5460 15.14807459 67580
YUSAT 1
1 47439U 21006AC 22104.40827422 .00005937 00000-0 32007-3 0 9993
2 47439 97.4449 164.8058 0013371 134.0097 226.2240 15.15078754 67584
SOMP 2b
1 47445U 21006AJ 22104.60742564 .00005057 00000-0 27717-3 0 9990
2 47445 97.4413 164.6627 0013161 136.6213 223.6057 15.14562036 67607
IDEASSat
1 47458U 21006AX 22104.38422163 .00005691 00000-0 31302-3 0 9998
2 47458 97.4504 164.8811 0012239 135.7364 224.4849 15.14390839 67564
RSP-01
1 47925U 98067SB 22104.71067353 .00159916 00000-0 10660-2 0 9994
2 47925 51.6349 269.7364 0004386 279.5760 80.4743 15.74349288 61746
